Location: Altenhof
(50.2418°N, 10.8789°E)
Time: 20:35:21
(UTC+00:00)

COSMOS 2428 - Pass Details

Date: 18 February 2020
Orbit: 846 x 856 km, 70.9° (Epoch: 03 April)

Event Time Altitude Azimuth Distance (km) Brightness Sun altitude
Exits shadow 02:34:33 27° 17° (NNE) 1,583 4.4 -36.3°
Drops below altitude 10° 02:37:09 10° 25° (NNE) 2,501 5.7 -36.0°
Sets 02:39:39 0° 29° (NNE) 3,441 6.6 -35.6°
